[[{"header":{"parameterUnit":"m.s-1","parameterCategory":1,"la1":30.2991,"la2":30.254,"lo1":-89.0895,"lo2":-89.0444,"dy":0.0017,"dx":0.0017,"nx":28,"ny":28,"refTime":"2023-10-30T03:00:00:Z","depth":0,"parameterNumber":2,"parameterNumberName":"U-component_of_WINDS"},"data":[0,0,0,0,0,0,0,0,0,0,0,0,0,0,0,0,0,0,0,0,0,0,0,0,0,0,0,0,0,0,0,0,0,0,0,0,0,0,0,0,0,0,0,0,0,0,0,0,0,0,0,0,0,0,0,0,0,0,-1.8813,-1.8813,0,-1.881,-1.881,-1.881,-1.8759,-1.8758,-1.8757,-1.8755,-1.8755,-1.8756,-1.8757,0,0,0,0,0,0,0,0,0,0,0,0,0,-1.8778,-1.8779,-1.8813,-1.8813,-1.8813,-1.881,-1.881,-1.881,-1.8759,-1.8758,-1.8756,-1.8755,-1.8754,-1.8756,-1.8757,0,0,0,0,0,0,0,0,0,0,0,0,0,-1.8786,-1.878,-1.8813,-1.8787,-1.8785,-1.881,-1.881,-1.881,-1.876,-1.8758,-1.8756,-1.8754,-1.8754,-1.8755,-1.8757,-1.8807,0,0,-1.8763,-1.8763,0,0,0,0,0,0,0,0,-1.8786,-1.8788,-1.8791,-1.8789,-1.8786,-1.8783,-1.8797,-1.8809,-1.876,-1.8769,-1.8755,-1.8753,-1.8766,-1.8766,-1.877,-1.8807,-1.8807,-1.8763,-1.8764,-1.8765,-1.8765,0,0,0,0,0,0,0,-1.8785,-1.8788,-1.8812,-1.8791,-1.8788,-1.8777,-1.8776,-1.8799,-1.8779,-1.8768,-1.8765,-1.8765,-1.8764,-1.8769,-1.877,-1.8807,-1.8763,-1.8764,-1.8765,-1.8766,-1.8887,-1.8889,0,0,0,0,0,0,-1.8788,-1.8787,-1.8812,-1.8811,-1.8781,-1.8779,-1.8778,-1.8786,-1.8778,-1.8775,-1.8767,-1.8763,-1.8766,-1.8768,-1.877,-1.8828,-1.8765,-1.8766,-1.8767,-1.8885,-1.8887,-1.889,0,0,0,0,0,0,-1.8787,-1.8791,-1.8812,-1.8798,-1.88,-1.8782,-1.8791,-1.8787,-1.8791,-1.8777,-1.8773,-1.8775,-1.8765,-1.8767,-1.8798,-1.8827,-1.8767,-1.8769,-1.8882,-1.8886,-1.8889,-1.8945,0,0,0,0,0,0,-1.8787,-1.8791,-1.8808,-1.8799,-1.8801,-1.884,-1.8793,-1.8788,-1.8794,-1.8789,-1.8783,-1.8781,-1.8764,-1.8796,-1.88,-1.8829,-1.877,-1.888,-1.8884,-1.8888,-1.8941,-1.895,-1.8958,0,0,0,0,0,-1.8786,-1.8825,-1.881,-1.8813,-1.8823,-1.8841,-1.8843,-1.8821,-1.8797,-1.8815,-1.8806,-1.8781,-1.8824,-1.88,-1.8804,-1.8833,-1.8878,-1.8883,-1.8887,-1.8937,-1.8948,-1.8958,0,0,0,0,0,0,-1.8838,-1.8823,-1.8806,-1.8843,-1.8844,-1.8833,-1.8855,-1.8834,-1.8842,-1.8837,-1.8812,-1.8811,-1.8847,-1.8843,-1.8817,-1.8882,-1.8846,-1.8852,-1.8883,-1.8893,-1.8902,-1.8902,-1.8772,0,0,0,0,0,-1.8854,-1.8869,-1.8856,-1.889,-1.8891,-1.8873,-1.8881,-1.8864,-1.8865,-1.8865,-1.8858,-1.886,-1.8874,-1.8884,-1.8896,-1.8941,-1.8939,-1.8963,-1.8972,-1.8979,-1.8984,-1.9009,-1.902,-1.8905,-1.8905,-1.8905,0,0,-1.8887,-1.888,-1.8892,-1.89,-1.8899,-1.8916,-1.8874,-1.8894,-1.8907,-1.8868,-1.8897,-1.8893,-1.8893,-1.8932,-1.8949,-1.893,-1.9016,-1.8985,-1.8991,-1.8992,-1.9015,-1.9026,-1.9036,-1.8909,-1.8908,-1.8908,0,0,-1.8955,-1.8952,-1.898,-1.898,-1.8979,-1.8967,-1.8974,-1.8967,-1.8962,-1.8991,-1.8963,-1.8979,-1.9003,-1.9005,-1.901,-1.9082,-1.9059,-1.9087,-1.9132,-1.9156,-1.9165,-1.9173,-1.9199,-1.9209,-1.9092,-1.9093,-1.9093,0,-1.8996,-1.902,-1.8998,-1.902,-1.9025,-1.8991,-1.902,-1.9022,-1.9025,-1.903,-1.901,-1.9041,-1.9039,-1.9078,-1.9096,-1.91,-1.9109,-1.9087,-1.9166,-1.9173,-1.918,-1.9205,-1.9215,-1.9096,-1.9096,-1.9095,-1.9095,0,-1.9071,-1.9089,-1.9112,-1.9116,-1.9124,-1.915,-1.9132,-1.9144,-1.9128,-1.9119,-1.915,-1.9147,-1.9158,-1.9167,-1.9151,-1.9204,-1.9193,-1.917,-1.9133,-1.9195,-1.9218,-1.9227,-1.9101,-1.9099,-1.9098,-1.9098,0,0,-1.917,-1.9162,-1.9171,-1.9173,-1.9171,-1.9184,-1.921,-1.9221,-1.9231,-1.9236,-1.9257,-1.928,-1.9258,-1.9263,-1.9249,-1.927,-1.9329,-1.9244,-1.9244,-1.926,-1.9388,-1.9405,-1.9417,-1.9315,-1.9316,-1.9318,-1.9388,0,-1.9237,-1.9278,-1.9259,-1.9303,-1.932,-1.9289,-1.9312,-1.9314,-1.9307,-1.9321,-1.9314,-1.933,-1.9301,-1.9304,-1.9324,-1.9317,-1.9354,-1.9312,-1.9335,-1.9336,-1.9335,-1.9429,-1.9446,-1.9513,-1.9397,-1.9398,-1.94,0,-1.9318,-1.9326,-1.9372,-1.9367,-1.9374,-1.9394,-1.9403,-1.9417,-1.9419,-1.9413,-1.942,-1.9401,-1.9427,-1.9392,-1.9429,-1.9401,-1.9409,-1.9408,-1.941,-1.941,-1.9371,-1.9431,-1.9534,-1.9544,-1.9413,-1.9412,-1.9411,0,-1.9386,-1.9408,-1.9438,-1.9441,-1.9437,-1.9452,-1.9451,-1.9451,-1.946,-1.9469,-1.9474,-1.9487,-1.9493,-1.9504,-1.949,-1.9465,-1.9529,-1.9492,-1.9525,-1.9526,-1.9539,-1.9538,-1.9643,-1.9546,-1.9546,-1.9545,-1.9545,0,-1.9462,-1.9491,-1.9469,-1.9487,-1.952,-1.95,-1.9533,-1.9529,-1.953,-1.9548,-1.9523,-1.9542,-1.9521,-1.9538,-1.9528,-1.956,-1.9564,-1.956,-1.9557,-1.9562,-1.9562,-1.9566,-1.9561,-1.9548,-1.9547,-1.9547,-1.9546,0,-1.9542,-1.9529,-1.956,-1.9554,-1.9553,-1.9577,-1.9573,-1.9591,-1.9583,-1.9607,-1.9611,-1.96,-1.9618,-1.9605,-1.9624,-1.9617,-1.966,-1.9651,-1.9659,-1.9656,-1.969,-1.9687,-1.9801,-1.9816,-1.9709,-1.971,-1.9711,0,-1.9591,-1.9612,-1.9609,-1.9619,-1.962,-1.9637,-1.9645,-1.9627,-1.9637,-1.9643,-1.9661,-1.9677,-1.9689,-1.9721,-1.9715,-1.973,-1.972,-1.976,-1.9722,-1.9728,-1.9721,-1.972,-1.9722,-1.9767,-1.9768,-1.9769,-1.977,0,-1.9679,-1.9671,-1.9684,-1.9695,-1.9706,-1.9714,-1.972,-1.973,-1.9712,-1.9725,-1.9744,-1.9753,-1.9773,-1.979,-1.9803,-1.9804,-1.9785,-1.9782,-1.979,-1.9795,-1.9799,-1.9798,-1.9679,-1.9779,-1.9778,-1.9777,-1.9777,-1.9777,-1.9744,-1.9763,-1.9764,-1.9779,-1.9782,-1.9789,-1.9806,-1.98,-1.9815,-1.9829,-1.9818,-1.9841,-1.9845,-1.986,-1.9864,-1.9882,-1.9866,-1.9878,-1.9881,-1.9885,-1.9889,-1.9797,-1.9884,-1.9884,-1.9884,-1.9884,-1.9884,0,-1.9831,-1.983,-1.9845,-1.9854,-1.9867,-1.9848,-1.9854,-1.9867,-1.9886,-1.9891,-1.9904,-1.9927,-1.9944,-1.994,-1.9956,-1.9972,-1.9964,-1.9977,-1.9975,-1.9976,-1.9903,-1.9894,-1.9983,-1.9983,-1.9983,-1.9983,-1.9983,-1.9983,-1.9877,-1.9908,-1.9901,-1.9933,-1.9933,-1.9954,-1.996,-1.9966,-1.997,-1.9996,-2.001,-2.0008,-2.001,-2.0026,-2.0042,-2.004,-2.0047,-2.0064,-2.0059,-1.9991,-1.9981,-1.9971,-1.9963,-2.0065,-2.0066,-2.0131,-2.0131,-2.0132]},{"header":{"parameterUnit":"m.s-1","parameterCategory":1,"la1":30.2991,"la2":30.254,"lo1":-89.0895,"lo2":-89.0444,"dy":0.0017,"dx":0.0017,"nx":28,"ny":28,"refTime":"2023-10-30T03:00:00:Z","depth":0,"parameterNumber":3,"parameterNumberName":"V-component_of_WINDS"},"data":[0,0,0,0,0,0,0,0,0,0,0,0,0,0,0,0,0,0,0,0,0,0,0,0,0,0,0,0,0,0,0,0,0,0,0,0,0,0,0,0,0,0,0,0,0,0,0,0,0,0,0,0,0,0,0,0,0,0,1.5187,1.5187,0,1.5159,1.5159,1.5158,1.5161,1.5162,1.5162,1.5163,1.513,1.5129,1.5128,0,0,0,0,0,0,0,0,0,0,0,0,0,1.5242,1.5241,1.5187,1.5187,1.5186,1.5159,1.5159,1.5158,1.5161,1.5162,1.5162,1.5163,1.5131,1.5129,1.5128,0,0,0,0,0,0,0,0,0,0,0,0,0,1.5216,1.524,1.5187,1.5185,1.5184,1.5159,1.5159,1.5158,1.5161,1.5162,1.5162,1.5163,1.5131,1.5129,1.5128,1.5102,0,0,1.5122,1.5121,0,0,0,0,0,0,0,0,1.5218,1.5214,1.5185,1.5185,1.5184,1.5164,1.5166,1.5139,1.5161,1.517,1.5163,1.5163,1.5141,1.5138,1.5131,1.5101,1.5099,1.5122,1.512,1.512,1.5119,0,0,0,0,0,0,0,1.5219,1.5215,1.5176,1.5185,1.5184,1.5184,1.5181,1.5161,1.5152,1.5169,1.5169,1.5166,1.5141,1.5133,1.5131,1.5099,1.5122,1.512,1.5119,1.5118,1.5048,1.5047,0,0,0,0,0,0,1.5222,1.5217,1.5177,1.5175,1.5203,1.5183,1.518,1.517,1.5152,1.515,1.5165,1.5166,1.5136,1.5133,1.513,1.5099,1.512,1.5118,1.5117,1.5048,1.5047,1.5047,0,0,0,0,0,0,1.5223,1.5218,1.5178,1.5196,1.5191,1.5181,1.517,1.5169,1.5162,1.5149,1.5147,1.516,1.5137,1.5132,1.511,1.5098,1.5117,1.5115,1.5049,1.5048,1.5047,1.5038,0,0,0,0,0,0,1.5225,1.5219,1.5209,1.5196,1.519,1.5159,1.517,1.5168,1.5159,1.5159,1.5143,1.5141,1.5137,1.5112,1.5108,1.5096,1.5114,1.505,1.5049,1.5047,1.5039,1.5037,1.5035,0,0,0,0,0,1.5227,1.5207,1.5209,1.5204,1.5178,1.5158,1.5154,1.5151,1.5158,1.5148,1.5141,1.5142,1.5101,1.511,1.5105,1.5092,1.5051,1.5049,1.5048,1.504,1.5037,1.5035,0,0,0,0,0,0,1.5217,1.5205,1.5207,1.5182,1.5171,1.5158,1.5146,1.5147,1.5133,1.5134,1.513,1.5126,1.5103,1.5096,1.5106,1.5068,1.5077,1.5074,1.5073,1.507,1.5068,1.507,1.5112,0,0,0,0,0,1.5212,1.5198,1.5188,1.5167,1.5162,1.5155,1.5146,1.5145,1.5133,1.5128,1.5118,1.5106,1.5091,1.508,1.5065,1.5039,1.5036,1.5028,1.5026,1.5024,1.5021,1.5008,1.5005,1.5041,1.5041,1.5041,0,0,1.5202,1.5193,1.5184,1.5165,1.5156,1.5141,1.5151,1.5134,1.5123,1.5125,1.5103,1.5096,1.5082,1.5058,1.5047,1.5051,1.5011,1.5022,1.5021,1.5019,1.5006,1.5003,1.4999,1.504,1.504,1.5041,0,0,1.5175,1.5167,1.5149,1.5142,1.5129,1.5125,1.5121,1.5109,1.5105,1.5084,1.5085,1.5072,1.5045,1.5035,1.5027,1.5,1.5001,1.4995,1.4982,1.497,1.4967,1.4964,1.4954,1.4951,1.4993,1.4993,1.4993,0,1.5163,1.5141,1.514,1.5124,1.5115,1.5119,1.5101,1.5093,1.5076,1.507,1.5075,1.5043,1.5034,1.5008,1.5002,1.4995,1.499,1.4996,1.4967,1.4965,1.4962,1.4953,1.4949,1.4992,1.4992,1.4992,1.4992,0,1.5127,1.5112,1.5099,1.5085,1.5075,1.5058,1.5054,1.5045,1.5045,1.504,1.5019,1.5009,1.4993,1.4987,1.4986,1.4961,1.4964,1.4969,1.4977,1.4958,1.4949,1.4946,1.4991,1.4991,1.4992,1.4992,0,0,1.509,1.5078,1.5073,1.5067,1.5055,1.5043,1.5027,1.5013,1.5005,1.4994,1.498,1.4959,1.4963,1.4954,1.4952,1.4941,1.4921,1.4947,1.4947,1.4942,1.4894,1.489,1.4886,1.4923,1.4922,1.4921,1.4895,0,1.5062,1.5034,1.5034,1.5008,1.4994,1.4999,1.4985,1.4976,1.4972,1.496,1.4955,1.494,1.4948,1.4942,1.4932,1.4926,1.4911,1.4928,1.4909,1.4908,1.4911,1.4881,1.4877,1.4852,1.4892,1.4891,1.4891,0,1.5024,1.5014,1.4987,1.4979,1.4973,1.4961,1.4949,1.4937,1.4928,1.4926,1.4917,1.4918,1.4901,1.4912,1.4889,1.4901,1.4893,1.489,1.4889,1.4885,1.4897,1.4877,1.4844,1.4841,1.4885,1.4886,1.4886,0,1.5,1.4979,1.4961,1.4956,1.4946,1.4938,1.4933,1.4925,1.4917,1.4906,1.4901,1.4888,1.488,1.4871,1.4868,1.4876,1.4845,1.4856,1.4843,1.4843,1.4834,1.4835,1.48,1.4832,1.4832,1.4832,1.4832,0,1.4967,1.495,1.495,1.4939,1.4921,1.4921,1.4903,1.4899,1.4892,1.488,1.4883,1.4872,1.487,1.4858,1.4856,1.4837,1.4834,1.4832,1.4831,1.4831,1.4831,1.4825,1.4826,1.4831,1.4831,1.4831,1.4831,0,1.4936,1.4935,1.4916,1.491,1.4908,1.4894,1.4889,1.4878,1.4876,1.4861,1.4857,1.4853,1.4839,1.4837,1.482,1.4818,1.4797,1.4798,1.48,1.48,1.4787,1.4788,1.4746,1.474,1.4776,1.4776,1.4776,0,1.4915,1.4902,1.4896,1.4889,1.4884,1.4872,1.4865,1.4866,1.4858,1.4848,1.4838,1.4826,1.4815,1.4793,1.4788,1.4776,1.4776,1.4763,1.4774,1.4775,1.4776,1.4776,1.4775,1.476,1.4759,1.4759,1.4759,0,1.4877,1.4878,1.4868,1.4858,1.485,1.4842,1.4834,1.4828,1.4828,1.4819,1.4806,1.4798,1.4783,1.477,1.4758,1.4753,1.4756,1.4756,1.4752,1.4751,1.4752,1.4751,1.4793,1.4756,1.4756,1.4756,1.4757,1.4757,1.485,1.484,1.4834,1.4823,1.4818,1.4812,1.4802,1.4799,1.4789,1.4777,1.4778,1.4764,1.4757,1.4742,1.4736,1.4725,1.4729,1.4724,1.4722,1.472,1.4719,1.4756,1.4723,1.4723,1.4723,1.4723,1.4723,0,1.4812,1.4809,1.48,1.479,1.4782,1.4788,1.478,1.4772,1.476,1.4754,1.4745,1.473,1.4719,1.4714,1.4703,1.4695,1.4696,1.4691,1.4691,1.469,1.4716,1.472,1.4691,1.4691,1.4691,1.4691,1.4691,1.4691,1.4791,1.4775,1.4775,1.4757,1.4754,1.4741,1.4737,1.4731,1.4726,1.4711,1.4701,1.47,1.4694,1.4683,1.4672,1.4671,1.4667,1.4662,1.4661,1.4685,1.4688,1.4691,1.4695,1.4661,1.4661,1.4636,1.4636,1.4636]}]]